"startDT [UTC]","vpos","CH4 [ppm]","stdev(CH4) [ppm]","CO2 [ppm]","stdev(CO2) [ppm]","H2O [ppm]","stdev(H2O)","p_LGR [torr]","T_LGR [C]","mt1_LGR [us]","mt2_LGR [us]","T_ECpre [C]","T_EC1 [C]","T_EC2 [C]","p_inlet [hPa]","p_in [hPa]","p_out [hPa]","T_inlet [C]","RH_inlet [%]","dwpt_inlet [C]","T_vent [C]","RH_vent [%]","dwpt_vent [C]","flow_vent [l min-1]","flow_inlet [l min-1]","dwpt_sample [C]","T_room [C]"
2012-12-05 00:00:00,0.0,1.9195,0.0008,-1.00,0.00,-1.0,0.0,138.41,12.19,24.61,36.45,0.04,-272.71,-272.71,-24,559,-934,9.0,1.7,-39.4,8.9,1.8,-38.9,5.73,2.56,-40.0,14.9
2012-12-05 00:01:00,0.0,1.9192,0.0008,-1.00,0.00,-1.0,0.0,138.41,12.22,24.61,36.45,0.04,-272.71,-272.71,-24,559,-934,9.0,1.7,-39.4,8.9,1.8,-38.9,5.73,2.56,-39.9,14.9
2012-12-05 00:02:00,0.0,1.9194,0.0009,-1.00,0.00,-1.0,0.0,138.41,12.25,24.61,36.44,0.04,-272.71,-272.71,-24,559,-934,9.0,1.7,-39.5,9.0,1.8,-39.0,5.73,2.57,-39.9,14.9
2012-12-05 00:03:00,0.0,1.9196,0.0009,-1.00,0.00,-1.0,0.0,138.41,12.28,24.61,36.45,0.04,-272.71,-272.71,-24,559,-934,9.0,1.7,-39.5,9.0,1.8,-39.0,5.73,2.58,-39.9,14.9
2012-12-05 00:04:00,0.0,1.9195,0.0007,-1.00,0.00,-1.0,0.0,138.41,12.31,24.61,36.44,0.04,-272.71,-272.71,-24,559,-934,9.0,1.7,-39.6,9.0,1.8,-39.1,5.73,2.58,-39.9,14.9
2012-12-05 00:05:00,0.0,1.9193,0.0009,-1.00,0.00,-1.0,0.0,138.41,12.34,24.61,36.45,0.04,-272.72,-272.72,-24,559,-934,9.0,1.7,-39.7,9.0,1.8,-39.1,5.73,2.57,-39.9,15.0
2012-12-05 00:06:00,0.0,1.9193,0.0010,-1.00,0.00,-1.0,0.0,138.41,12.37,24.61,36.45,0.04,-272.71,-272.71,-24,559,-934,9.1,1.7,-39.7,9.0,1.7,-39.2,5.73,2.58,-39.8,15.0
2012-12-05 00:07:00,0.0,1.9197,0.0009,-1.00,0.00,-1.0,0.0,138.41,12.40,24.60,36.44,0.04,-272.71,-272.71,-24,559,-934,9.1,1.6,-39.8,9.0,1.7,-39.3,5.73,2.58,-39.8,15.0
2012-12-05 00:08:00,0.0,1.9196,0.0010,-1.00,0.00,-1.0,0.0,138.41,12.43,24.61,36.45,0.04,-272.72,-272.71,-24,560,-934,9.1,1.6,-39.8,9.1,1.7,-39.4,5.73,2.57,-39.8,15.0
2012-12-05 00:09:00,0.0,1.9194,0.0009,-1.00,0.00,-1.0,0.0,138.41,12.46,24.61,36.45,0.04,-272.71,-272.71,-24,559,-934,9.1,1.6,-39.8,9.1,1.7,-39.3,5.73,2.56,-39.7,15.1
2012-12-05 00:10:00,0.0,1.9198,0.0012,-1.00,0.00,-1.0,0.0,138.41,12.49,24.60,36.45,0.04,-272.71,-272.70,-24,559,-934,9.2,1.7,-39.7,9.1,1.7,-39.2,5.73,2.55,-39.8,15.1
2012-12-05 00:11:00,0.0,1.9196,0.0008,-1.00,0.00,-1.0,0.0,138.41,12.52,24.60,36.45,0.04,-272.71,-272.72,-24,559,-934,9.2,1.7,-39.6,9.1,1.8,-39.0,5.73,2.54,-39.7,15.1
2012-12-05 00:12:00,0.0,1.9196,0.0008,-1.00,0.00,-1.0,0.0,138.41,12.55,24.61,36.45,0.04,-272.71,-272.71,-24,559,-934,9.2,1.7,-39.4,9.2,1.8,-38.9,5.73,2.54,-39.7,15.1
2012-12-05 00:13:00,0.0,1.9195,0.0007,-1.00,0.00,-1.0,0.0,138.41,12.58,24.60,36.45,0.04,-272.71,-272.71,-24,559,-934,9.2,1.7,-39.4,9.2,1.8,-38.9,5.73,2.53,-39.7,15.1
2012-12-05 00:14:00,0.0,1.9194,0.0007,-1.00,0.00,-1.0,0.0,138.41,12.61,24.60,36.44,0.04,-272.71,-272.71,-24,559,-934,9.2,1.7,-39.4,9.2,1.8,-38.9,5.73,2.54,-39.6,15.1
2012-12-05 00:15:00,0.0,1.9188,0.0010,-1.00,0.00,-1.0,0.0,138.41,12.64,24.61,36.44,0.04,-272.71,-272.72,-24,559,-934,9.3,1.7,-39.4,9.2,1.8,-38.8,5.73,2.54,-39.6,15.2
2012-12-05 00:16:00,0.0,1.9186,0.0009,-1.00,0.00,-1.0,0.0,138.41,12.66,24.61,36.45,0.04,-272.71,-272.71,-24,559,-934,9.3,1.7,-39.4,9.2,1.8,-38.9,5.73,2.55,-39.6,15.2
2012-12-05 00:17:00,0.0,1.9189,0.0008,-1.00,0.00,-1.0,0.0,138.41,12.69,24.61,36.45,0.04,-272.71,-272.71,-24,559,-934,9.3,1.7,-39.4,9.3,1.8,-38.8,5.73,2.56,-39.6,15.2
2012-12-05 00:18:00,0.0,1.9189,0.0010,-1.00,0.00,-1.0,0.0,138.41,12.72,24.61,36.44,0.04,-272.71,-272.72,-24,560,-934,9.3,1.7,-39.4,9.3,1.8,-38.8,5.73,2.57,-39.6,15.2
2012-12-05 00:19:00,0.0,1.9188,0.0009,-1.00,0.00,-1.0,0.0,138.41,12.75,24.61,36.44,0.04,-272.71,-272.72,-24,559,-934,9.3,1.7,-39.3,9.3,1.8,-38.8,5.73,2.58,-39.5,15.2
2012-12-05 00:20:00,0.0,1.9194,0.0009,-1.00,0.00,-1.0,0.0,138.41,12.77,24.60,36.45,0.04,-272.71,-272.71,-24,560,-934,9.4,1.7,-39.4,9.3,1.8,-38.8,5.73,2.58,-39.5,15.3
2012-12-05 00:21:00,0.0,1.9189,0.0009,-1.00,0.00,-1.0,0.0,138.40,12.80,24.61,36.45,0.04,-272.71,-272.71,-24,560,-934,9.4,1.7,-39.3,9.4,1.8,-38.8,5.73,2.57,-39.5,15.3
2012-12-05 00:22:00,0.0,1.9190,0.0009,-1.00,0.00,-1.0,0.0,138.40,12.83,24.61,36.45,0.04,-272.71,-272.72,-24,560,-934,9.4,1.7,-39.3,9.4,1.8,-38.8,5.73,2.57,-39.5,15.3
2012-12-05 00:23:00,0.0,1.9194,0.0010,-1.00,0.00,-1.0,0.0,138.40,12.86,24.61,36.44,0.04,-272.71,-272.71,-24,560,-934,9.4,1.7,-39.3,9.4,1.8,-38.7,5.73,2.56,-39.5,15.3
2012-12-05 00:24:00,0.0,1.9190,0.0008,-1.00,0.00,-1.0,0.0,138.40,12.89,24.61,36.45,0.04,-272.71,-272.71,-24,560,-934,9.4,1.7,-39.3,9.4,1.8,-38.7,5.73,2.55,-39.4,15.3
2012-12-05 00:25:00,0.0,1.9196,0.0010,-1.00,0.00,-1.0,0.0,138.40,12.92,24.61,36.45,0.04,-272.72,-272.71,-24,560,-934,9.4,1.7,-39.3,9.4,1.8,-38.7,5.73,2.52,-39.4,15.4
2012-12-05 00:26:00,0.0,1.9197,0.0009,-1.00,0.00,-1.0,0.0,138.40,12.94,24.61,36.45,0.04,-272.71,-272.71,-24,560,-934,9.5,1.7,-39.3,9.4,1.8,-38.7,5.73,2.52,-39.4,15.4
2012-12-05 00:27:00,0.0,1.9194,0.0009,-1.00,0.00,-1.0,0.0,138.40,12.97,24.61,36.45,0.04,-272.71,-272.71,-24,560,-934,9.5,1.7,-39.2,9.5,1.8,-38.7,5.73,2.53,-39.4,15.4
2012-12-05 00:28:00,0.0,1.9194,0.0009,-1.00,0.00,-1.0,0.0,138.40,13.00,24.61,36.45,0.04,-272.72,-272.72,-24,560,-934,9.5,1.7,-39.2,9.5,1.8,-38.7,5.73,2.55,-39.4,15.4
2012-12-05 00:29:00,0.0,1.9192,0.0010,-1.00,0.00,-1.0,0.0,138.40,13.03,24.61,36.45,0.04,-272.71,-272.72,-24,560,-934,9.5,1.7,-39.3,9.5,1.8,-38.7,5.73,2.56,-39.3,15.4
2012-12-05 00:30:00,0.0,1.9189,0.0009,-1.00,0.00,-1.0,0.0,138.40,13.06,24.61,36.45,0.04,-272.71,-272.71,-24,560,-934,9.5,1.7,-39.1,9.6,1.8,-38.6,5.73,2.58,-39.3,15.4
2012-12-05 00:31:00,0.0,1.9190,0.0007,-1.00,0.00,-1.0,0.0,138.40,13.09,24.61,36.44,0.04,-272.71,-272.72,-24,561,-934,9.6,1.7,-39.0,9.6,1.8,-38.6,5.73,2.59,-39.3,15.4
2012-12-05 00:32:00,0.0,1.9194,0.0009,-1.00,0.00,-1.0,0.0,138.40,13.11,24.60,36.45,0.04,-272.71,-272.72,-24,561,-934,9.6,1.7,-39.0,9.6,1.8,-38.6,5.73,2.58,-39.2,15.4
2012-12-05 00:33:00,0.0,1.9196,0.0010,-1.00,0.00,-1.0,0.0,138.40,13.14,24.61,36.44,0.04,-272.72,-272.72,-24,561,-934,9.6,1.7,-39.0,9.6,1.8,-38.6,5.73,2.55,-39.2,15.5
2012-12-05 00:34:00,0.0,1.9200,0.0009,-1.00,0.00,-1.0,0.0,138.40,13.17,24.61,36.45,0.04,-272.71,-272.72,-24,561,-934,9.6,1.7,-39.0,9.6,1.8,-38.6,5.73,2.53,-39.2,15.5
2012-12-05 00:35:00,0.0,1.9200,0.0008,-1.00,0.00,-1.0,0.0,138.40,13.20,24.61,36.45,0.04,-272.72,-272.71,-25,560,-935,9.6,1.7,-39.0,9.6,1.8,-38.6,5.73,2.52,-39.2,15.5
2012-12-05 00:36:00,0.0,1.9197,0.0008,-1.00,0.00,-1.0,0.0,138.40,13.22,24.61,36.45,0.04,-272.71,-272.72,-25,560,-934,9.7,1.7,-39.0,9.6,1.8,-38.6,5.73,2.53,-39.2,15.5
2012-12-05 00:37:00,0.0,1.9195,0.0008,-1.00,0.00,-1.0,0.0,138.40,13.25,24.61,36.44,0.04,-272.72,-272.71,-25,560,-935,9.7,1.7,-39.0,9.6,1.8,-38.6,5.73,2.53,-39.2,15.6
2012-12-05 00:38:00,0.0,1.9192,0.0011,-1.00,0.00,-1.0,0.0,138.40,13.27,24.61,36.45,0.04,-272.71,-272.72,-25,560,-935,9.7,1.7,-39.0,9.7,1.8,-38.5,5.73,2.56,-39.1,15.6
2012-12-05 00:39:00,0.0,1.9197,0.0010,-1.00,0.00,-1.0,0.0,138.40,13.30,24.61,36.44,0.04,-272.71,-272.72,-25,560,-935,9.7,1.7,-38.9,9.7,1.8,-38.4,5.73,2.58,-39.1,15.6
2012-12-05 00:40:00,0.0,1.9190,0.0008,-1.00,0.00,-1.0,0.0,138.40,13.33,24.61,36.44,0.04,-272.71,-272.71,-25,559,-935,9.7,1.7,-38.9,9.7,1.8,-38.4,5.73,2.59,-39.1,15.6
2012-12-05 00:41:00,0.0,1.9199,0.0011,-1.00,0.00,-1.0,0.0,138.40,13.35,24.60,36.45,0.04,-272.71,-272.72,-25,560,-935,9.8,1.7,-38.8,9.8,1.8,-38.4,5.73,2.58,-39.1,15.6
2012-12-05 00:42:00,0.0,1.9195,0.0007,-1.00,0.00,-1.0,0.0,138.40,13.38,24.61,36.45,0.04,-272.72,-272.72,-25,560,-935,9.8,1.7,-38.8,9.8,1.8,-38.4,5.73,2.54,-39.0,15.6
2012-12-05 00:43:00,0.0,1.9195,0.0008,-1.00,0.00,-1.0,0.0,138.40,13.40,24.60,36.44,0.04,-272.72,-272.72,-25,560,-935,9.8,1.7,-38.8,9.8,1.8,-38.4,5.73,2.52,-39.0,15.7
2012-12-05 00:44:00,0.0,1.9194,0.0009,-1.00,0.00,-1.0,0.0,138.40,13.43,24.61,36.44,0.04,-272.72,-272.71,-25,560,-935,9.8,1.7,-38.7,9.8,1.8,-38.3,5.73,2.51,-39.0,15.7
2012-12-05 00:45:00,0.0,1.9187,0.0009,-1.00,0.00,-1.0,0.0,138.39,13.45,24.61,36.45,0.04,-272.72,-272.72,-25,560,-935,9.8,1.7,-38.8,9.8,1.8,-38.3,5.73,2.53,-39.0,15.7
2012-12-05 00:46:00,0.0,1.9198,0.0009,-1.00,0.00,-1.0,0.0,138.39,13.48,24.61,36.45,0.04,-272.72,-272.72,-25,560,-935,9.8,1.7,-38.7,9.8,1.8,-38.3,5.73,2.56,-39.0,15.7
2012-12-05 00:47:00,0.0,1.9191,0.0009,-1.00,0.00,-1.0,0.0,138.39,13.50,24.61,36.45,0.04,-272.71,-272.72,-25,560,-935,9.9,1.8,-38.7,9.8,1.8,-38.2,5.73,2.59,-38.9,15.8
2012-12-05 00:48:00,0.0,1.9189,0.0010,-1.00,0.00,-1.0,0.0,138.39,13.53,24.61,36.44,0.04,-272.72,-272.71,-25,560,-935,9.9,1.8,-38.7,9.9,1.9,-38.1,5.73,2.59,-38.9,15.8
2012-12-05 00:49:00,0.0,1.9186,0.0009,-1.00,0.00,-1.0,0.0,138.39,13.56,24.61,36.45,0.04,-272.72,-272.72,-25,560,-935,9.9,1.8,-38.5,9.9,1.8,-38.1,5.73,2.56,-38.9,15.8
2012-12-05 00:50:00,0.0,1.9186,0.0008,-1.00,0.00,-1.0,0.0,138.39,13.58,24.61,36.45,0.04,-272.71,-272.71,-25,560,-935,9.9,1.8,-38.5,9.9,1.8,-38.1,5.73,2.53,-38.9,15.8
2012-12-05 00:51:00,0.0,1.9189,0.0009,-1.00,0.00,-1.0,0.0,138.39,13.61,24.61,36.44,0.04,-272.72,-272.72,-25,560,-935,9.9,1.8,-38.6,9.9,1.9,-38.1,5.73,2.51,-38.8,15.8
2012-12-05 00:52:00,0.0,1.9191,0.0009,-1.00,0.00,-1.0,0.0,138.39,13.63,24.61,36.44,0.04,-272.72,-272.72,-25,560,-935,9.9,1.8,-38.5,9.9,1.8,-38.1,5.73,2.52,-38.8,15.8
2012-12-05 00:53:00,0.0,1.9190,0.0008,-1.00,0.00,-1.0,0.0,138.39,13.66,24.61,36.45,0.04,-272.72,-272.72,-25,560,-935,10.0,1.8,-38.5,10.0,1.9,-38.1,5.73,2.55,-38.8,15.9
2012-12-05 00:54:00,0.0,1.9190,0.0011,-1.00,0.00,-1.0,0.0,138.39,13.68,24.61,36.44,0.04,-272.71,-272.71,-25,561,-935,10.0,1.8,-38.5,10.0,1.9,-38.0,5.73,2.58,-38.8,15.9
2012-12-05 00:55:00,0.0,1.9188,0.0012,-1.00,0.00,-1.0,0.0,138.39,13.71,24.61,36.45,0.04,-272.72,-272.72,-25,561,-935,10.0,1.8,-38.5,10.0,1.9,-37.9,5.73,2.59,-38.8,15.9
2012-12-05 00:56:00,0.0,1.9191,0.0008,-1.00,0.00,-1.0,0.0,138.39,13.73,24.61,36.44,0.04,-272.72,-272.72,-25,561,-935,10.0,1.8,-38.5,10.0,1.9,-37.9,5.73,2.56,-38.7,15.9
2012-12-05 00:57:00,0.0,1.9186,0.0011,-1.00,0.00,-1.0,0.0,138.39,13.76,24.61,36.44,0.04,-272.71,-272.72,-25,561,-935,10.0,1.8,-38.3,10.0,1.9,-37.9,5.73,2.52,-38.7,15.9
2012-12-05 00:58:00,0.0,1.9186,0.0008,-1.00,0.00,-1.0,0.0,138.39,13.78,24.61,36.44,0.04,-272.72,-272.72,-25,561,-935,10.1,1.8,-38.3,10.0,1.9,-37.8,5.73,2.50,-38.7,16.0
2012-12-05 00:59:00,0.0,1.9185,0.0007,-1.00,0.00,-1.0,0.0,138.39,13.81,24.61,36.44,0.04,-272.72,-272.72,-25,561,-935,10.1,1.8,-38.2,10.0,1.9,-37.8,5.73,2.52,-38.7,16.0
2012-12-05 01:00:00,0.0,1.9187,0.0008,-1.00,0.00,-1.0,0.0,138.39,13.83,24.61,36.45,0.04,-272.71,-272.72,-25,561,-935,10.1,1.8,-38.1,10.1,1.9,-37.6,5.73,2.57,-38.7,16.0
2012-12-05 01:01:00,0.0,1.9185,0.0011,-1.00,0.00,-1.0,0.0,138.39,13.86,24.61,36.44,0.04,-272.72,-272.71,-25,561,-935,10.1,1.9,-37.9,10.1,1.9,-37.6,5.73,2.59,-38.7,16.0
2012-12-05 01:02:00,0.0,1.9182,0.0010,-1.00,0.00,-1.0,0.0,138.39,13.88,24.61,36.45,0.04,-272.72,-272.72,-25,561,-935,10.1,1.9,-38.0,10.1,1.9,-37.5,5.73,2.57,-38.6,16.0
2012-12-05 01:03:00,0.0,1.9177,0.0009,-1.00,0.00,-1.0,0.0,138.39,13.91,24.62,36.44,0.04,-272.72,-272.72,-25,561,-935,10.1,1.9,-37.9,10.1,2.0,-37.4,5.73,2.53,-38.6,16.0
2012-12-05 01:04:00,0.0,1.9186,0.0008,-1.00,0.00,-1.0,0.0,138.39,13.93,24.61,36.45,0.04,-272.72,-272.71,-25,561,-935,10.2,1.9,-37.8,10.2,2.0,-37.4,5.73,2.50,-38.6,16.1
2012-12-05 01:05:00,0.0,1.9184,0.0008,-1.00,0.00,-1.0,0.0,138.39,13.95,24.61,36.45,0.04,-272.72,-272.72,-25,561,-935,10.2,1.9,-37.8,10.2,2.0,-37.4,5.73,2.51,-38.6,16.1
2012-12-05 01:06:00,0.0,1.9184,0.0008,-1.00,0.00,-1.0,0.0,138.39,13.98,24.61,36.44,0.04,-272.72,-272.72,-25,560,-935,10.2,1.9,-37.8,10.2,2.0,-37.4,5.73,2.55,-38.6,16.1
2012-12-05 01:07:00,0.0,1.9183,0.0007,-1.00,0.00,-1.0,0.0,138.39,14.00,24.61,36.44,0.04,-272.72,-272.71,-25,561,-935,10.2,1.9,-37.8,10.2,2.0,-37.3,5.73,2.59,-38.5,16.1
2012-12-05 01:08:00,0.0,1.9186,0.0009,-1.00,0.00,-1.0,0.0,138.39,14.02,24.61,36.45,0.04,-272.72,-272.72,-25,560,-935,10.2,1.9,-37.7,10.2,2.0,-37.4,5.73,2.58,-38.5,16.1
2012-12-05 01:09:00,0.0,1.9181,0.0007,-1.00,0.00,-1.0,0.0,138.38,14.05,24.61,36.45,0.04,-272.72,-272.72,-25,560,-935,10.2,1.9,-37.9,10.2,2.0,-37.4,5.73,2.53,-38.5,16.2
2012-12-05 01:10:00,0.0,1.9183,0.0010,-1.00,0.00,-1.0,0.0,138.38,14.07,24.61,36.44,0.04,-272.71,-272.72,-25,560,-936,10.2,1.9,-37.9,10.3,1.9,-37.5,5.73,2.50,-38.5,16.2
2012-12-05 01:11:00,0.0,1.9184,0.0009,-1.00,0.00,-1.0,0.0,138.38,14.09,24.61,36.44,0.04,-272.72,-272.72,-25,560,-935,10.3,1.9,-37.8,10.3,1.9,-37.4,5.73,2.51,-38.4,16.2
2012-12-05 01:12:00,0.0,1.9176,0.0010,-1.00,0.00,-1.0,0.0,138.38,14.12,24.61,36.44,0.04,-272.72,-272.72,-25,560,-936,10.3,1.9,-37.9,10.3,1.9,-37.4,5.73,2.55,-38.4,16.2
2012-12-05 01:13:00,0.0,1.9179,0.0009,-1.00,0.00,-1.0,0.0,138.38,14.14,24.61,36.44,0.04,-272.72,-272.72,-26,561,-935,10.3,1.9,-37.7,10.3,2.0,-37.3,5.73,2.60,-38.4,16.2
2012-12-05 01:14:00,0.0,1.9180,0.0008,-1.00,0.00,-1.0,0.0,138.38,14.16,24.61,36.45,0.04,-272.72,-272.72,-26,561,-936,10.3,1.9,-37.7,10.3,2.0,-37.3,5.73,2.58,-38.4,16.2
2012-12-05 01:15:00,0.0,1.9181,0.0007,-1.00,0.00,-1.0,0.0,138.38,14.18,24.61,36.44,0.04,-272.72,-272.72,-26,561,-936,10.3,1.9,-37.7,10.4,2.0,-37.2,5.73,2.52,-38.4,16.2
2012-12-05 01:16:00,0.0,1.9175,0.0008,-1.00,0.00,-1.0,0.0,138.38,14.21,24.61,36.44,0.04,-272.72,-272.72,-26,561,-936,10.4,1.9,-37.6,10.4,2.0,-37.1,5.73,2.49,-38.4,16.3
2012-12-05 01:17:00,0.0,1.9175,0.0008,-1.00,0.00,-1.0,0.0,138.38,14.23,24.61,36.45,0.04,-272.72,-272.72,-25,561,-936,10.4,1.9,-37.6,10.4,2.0,-37.1,5.73,2.52,-38.3,16.3
2012-12-05 01:18:00,0.0,1.9180,0.0009,-1.00,0.00,-1.0,0.0,138.38,14.25,24.61,36.44,0.04,-272.72,-272.72,-25,561,-935,10.4,1.9,-37.5,10.3,2.0,-37.1,5.73,2.57,-38.3,16.3
2012-12-05 01:19:00,0.0,1.9182,0.0008,-1.00,0.00,-1.0,0.0,138.38,14.28,24.61,36.44,0.04,-272.72,-272.73,-25,561,-936,10.4,1.9,-37.5,10.4,2.0,-37.1,5.73,2.60,-38.3,16.3
2012-12-05 01:20:00,0.0,1.9182,0.0010,-1.00,0.00,-1.0,0.0,138.38,14.30,24.61,36.45,0.04,-272.72,-272.72,-26,561,-936,10.4,1.9,-37.5,10.4,2.0,-37.1,5.73,2.56,-38.3,16.3
2012-12-05 01:21:00,0.0,1.9177,0.0010,-1.00,0.00,-1.0,0.0,138.38,14.32,24.61,36.44,0.04,-272.71,-272.72,-26,561,-936,10.4,1.9,-37.5,10.4,2.0,-37.1,5.73,2.50,-38.3,16.4
2012-12-05 01:22:00,0.0,1.9179,0.0009,-1.00,0.00,-1.0,0.0,138.38,14.34,24.61,36.44,0.04,-272.71,-272.71,-26,561,-936,10.5,1.9,-37.4,10.5,2.0,-37.0,5.73,2.50,-38.2,16.4
2012-12-05 01:23:00,0.0,1.9181,0.0009,-1.00,0.00,-1.0,0.0,138.38,14.37,24.61,36.44,0.04,-272.72,-272.72,-26,561,-935,10.5,1.9,-37.4,10.5,2.0,-36.9,5.73,2.55,-38.2,16.4
2012-12-05 01:24:00,0.0,1.9174,0.0010,-1.00,0.00,-1.0,0.0,138.38,14.39,24.61,36.44,0.04,-272.71,-272.72,-26,562,-936,10.5,1.9,-37.4,10.5,2.0,-37.0,5.73,2.60,-38.2,16.4
2012-12-05 01:25:00,0.0,1.9180,0.0009,-1.00,0.00,-1.0,0.0,138.38,14.41,24.60,36.43,0.04,-272.72,-272.72,-26,562,-936,10.5,1.9,-37.6,10.5,2.0,-37.1,5.73,2.57,-38.2,16.4
2012-12-05 01:26:00,0.0,1.9177,0.0008,-1.00,0.00,-1.0,0.0,138.38,14.44,24.61,36.44,0.04,-272.72,-272.72,-26,562,-936,10.5,1.9,-37.7,10.6,1.9,-37.2,5.73,2.51,-38.2,16.4
2012-12-05 01:27:00,0.0,1.9175,0.0009,-1.00,0.00,-1.0,0.0,138.38,14.46,24.61,36.45,0.04,-272.72,-272.72,-26,562,-936,10.6,1.8,-37.8,10.6,1.9,-37.3,5.73,2.49,-38.1,16.5
2012-12-05 01:28:00,0.0,1.9179,0.0009,-1.00,0.00,-1.0,0.0,138.38,14.48,24.61,36.44,0.04,-272.72,-272.72,-26,562,-936,10.6,1.8,-37.9,10.6,1.9,-37.4,5.73,2.54,-38.1,16.5
2012-12-05 01:29:00,0.0,1.9179,0.0009,-1.00,0.00,-1.0,0.0,138.38,14.50,24.61,36.44,0.04,-272.72,-272.72,-26,562,-936,10.6,1.8,-38.0,10.6,1.9,-37.5,5.73,2.59,-38.1,16.5
2012-12-05 01:30:00,0.0,1.9180,0.0008,-1.00,0.00,-1.0,0.0,138.38,14.52,24.61,36.44,0.04,-272.72,-272.72,-26,562,-936,10.6,1.8,-38.1,10.6,1.8,-37.7,5.73,2.57,-38.1,16.5
2012-12-05 01:31:00,0.0,1.9184,0.0008,-1.00,0.00,-1.0,0.0,138.38,14.54,24.61,36.45,0.04,-272.72,-272.71,-26,562,-936,10.6,1.7,-38.2,10.6,1.8,-37.7,5.73,2.50,-38.1,16.5
2012-12-05 01:32:00,0.0,1.9182,0.0009,-1.00,0.00,-1.0,0.0,138.38,14.56,24.61,36.44,0.04,-272.72,-272.72,-26,562,-936,10.6,1.7,-38.5,10.6,1.8,-37.9,5.73,2.49,-38.1,16.5
2012-12-05 01:33:00,0.0,1.9177,0.0010,-1.00,0.00,-1.0,0.0,138.37,14.59,24.61,36.45,0.04,-272.72,-272.72,-26,562,-936,10.7,1.7,-38.5,10.7,1.8,-38.1,5.73,2.56,-38.1,16.6
2012-12-05 01:34:00,0.0,1.9189,0.0010,-1.00,0.00,-1.0,0.0,138.37,14.61,24.61,36.43,0.04,-272.72,-272.72,-26,562,-936,10.7,1.7,-38.6,10.7,1.8,-38.1,5.73,2.59,-38.0,16.6
2012-12-05 01:35:00,0.0,1.9200,0.0009,-1.00,0.00,-1.0,0.0,138.37,14.63,24.61,36.44,0.04,-272.72,-272.72,-26,562,-936,10.7,1.7,-38.6,10.7,1.7,-38.2,5.73,2.56,-38.0,16.6
2012-12-05 01:36:00,0.0,1.9206,0.0009,-1.00,0.00,-1.0,0.0,138.37,14.65,24.61,36.45,0.04,-272.72,-272.72,-26,562,-936,10.7,1.7,-38.7,10.7,1.7,-38.2,5.73,2.50,-38.0,16.6
2012-12-05 01:37:00,0.0,1.9205,0.0011,-1.00,0.00,-1.0,0.0,138.37,14.67,24.61,36.45,0.04,-272.72,-272.72,-26,562,-936,10.7,1.6,-38.8,10.7,1.7,-38.3,5.73,2.49,-38.0,16.6
2012-12-05 01:38:00,0.0,1.9192,0.0011,-1.00,0.00,-1.0,0.0,138.37,14.70,24.61,36.44,0.04,-272.72,-272.72,-26,562,-936,10.7,1.6,-38.8,10.8,1.7,-38.3,5.73,2.55,-37.9,16.6
2012-12-05 01:39:00,0.0,1.9184,0.0010,-1.00,0.00,-1.0,0.0,138.37,14.72,24.61,36.44,0.04,-272.72,-272.72,-26,562,-936,10.8,1.6,-38.8,10.8,1.7,-38.3,5.73,2.60,-37.9,16.6
2012-12-05 01:40:00,0.0,1.9181,0.0011,-1.00,0.00,-1.0,0.0,138.37,14.74,24.61,36.44,0.04,-272.72,-272.72,-26,561,-936,10.8,1.6,-38.7,10.8,1.7,-38.3,5.73,2.56,-37.9,16.6
2012-12-05 01:41:00,0.0,1.9180,0.0007,-1.00,0.00,-1.0,0.0,138.37,14.76,24.61,36.44,0.04,-272.72,-272.72,-26,561,-936,10.8,1.6,-38.7,10.8,1.7,-38.3,5.73,2.49,-37.9,16.6
2012-12-05 01:42:00,0.0,1.9177,0.0010,-1.00,0.00,-1.0,0.0,138.37,14.78,24.61,36.44,0.04,-272.72,-272.72,-26,561,-936,10.8,1.6,-38.7,10.8,1.7,-38.2,5.73,2.49,-37.9,16.7
2012-12-05 01:43:00,0.0,1.9169,0.0009,-1.00,0.00,-1.0,0.0,138.37,14.80,24.61,36.45,0.04,-272.72,-272.72,-26,561,-936,10.8,1.6,-38.7,10.8,1.7,-38.1,5.73,2.56,-37.9,16.7
2012-12-05 01:44:00,0.0,1.9180,0.0008,-1.00,0.00,-1.0,0.0,138.37,14.82,24.61,36.44,0.04,-272.72,-272.72,-26,561,-936,10.8,1.7,-38.6,10.8,1.8,-38.0,5.73,2.60,-37.9,16.7
2012-12-05 01:45:00,0.0,1.9179,0.0009,-1.00,0.00,-1.0,0.0,138.37,14.84,24.61,36.44,0.04,-272.72,-272.72,-26,561,-936,10.8,1.7,-38.4,10.9,1.8,-37.9,5.73,2.55,-37.8,16.7
2012-12-05 01:46:00,0.0,1.9178,0.0009,-1.00,0.00,-1.0,0.0,138.37,14.86,24.61,36.44,0.04,-272.72,-272.72,-26,561,-936,10.9,1.7,-38.3,10.9,1.8,-37.8,5.73,2.48,-37.8,16.7
2012-12-05 01:47:00,0.0,1.9177,0.0010,-1.00,0.00,-1.0,0.0,138.37,14.88,24.61,36.43,0.04,-272.72,-272.72,-26,561,-936,10.9,1.7,-38.1,10.9,1.8,-37.6,5.73,2.50,-37.8,16.7
2012-12-05 01:48:00,0.0,1.9184,0.0010,-1.00,0.00,-1.0,0.0,138.37,14.90,24.61,36.44,0.04,-272.72,-272.72,-26,561,-936,10.9,1.7,-38.1,10.9,1.8,-37.5,5.73,2.58,-37.8,16.8
2012-12-05 01:49:00,0.0,1.9179,0.0010,-1.00,0.00,-1.0,0.0,138.37,14.92,24.61,36.45,0.04,-272.72,-272.72,-26,561,-936,10.9,1.8,-37.9,10.9,1.8,-37.5,5.73,2.58,-37.8,16.8
2012-12-05 01:50:00,0.0,1.9183,0.0009,-1.00,0.00,-1.0,0.0,138.37,14.94,24.61,36.44,0.04,-272.72,-272.72,-26,561,-936,10.9,1.8,-37.9,11.0,1.9,-37.4,5.73,2.51,-37.7,16.8
2012-12-05 01:51:00,0.0,1.9182,0.0010,-1.00,0.00,-1.0,0.0,138.37,14.96,24.61,36.43,0.04,-272.72,-272.72,-26,561,-936,11.0,1.8,-37.7,11.0,1.9,-37.3,5.73,2.48,-37.7,16.8
2012-12-05 01:52:00,0.0,1.9185,0.0010,-1.00,0.00,-1.0,0.0,138.37,14.98,24.61,36.44,0.04,-272.72,-272.72,-26,561,-936,11.0,1.8,-37.7,11.0,1.9,-37.3,5.73,2.55,-37.7,16.9
2012-12-05 01:53:00,0.0,1.9178,0.0011,-1.00,0.00,-1.0,0.0,138.37,15.00,24.61,36.43,0.04,-272.72,-272.72,-26,561,-936,11.0,1.8,-37.7,11.0,1.9,-37.2,5.73,2.60,-37.7,16.9
2012-12-05 01:54:00,0.0,1.9188,0.0010,-1.00,0.00,-1.0,0.0,138.37,15.02,24.61,36.44,0.04,-272.72,-272.72,-26,562,-936,11.0,1.8,-37.7,11.0,1.9,-37.1,5.73,2.54,-37.7,16.9
2012-12-05 01:55:00,0.0,1.9181,0.0008,-1.00,0.00,-1.0,0.0,138.37,15.05,24.61,36.44,0.04,-272.72,-272.72,-26,562,-936,11.0,1.8,-37.6,11.0,1.9,-37.1,5.73,2.48,-37.7,16.9
2012-12-05 01:56:00,0.0,1.9180,0.0008,-1.00,0.00,-1.0,0.0,138.37,15.07,24.61,36.43,0.04,-272.72,-272.72,-27,562,-936,11.0,1.8,-37.6,11.0,1.9,-37.1,5.73,2.52,-37.6,16.9
2012-12-05 01:57:00,0.0,1.9181,0.0009,-1.00,0.00,-1.0,0.0,138.37,15.09,24.61,36.43,0.04,-272.72,-272.72,-26,562,-936,11.0,1.8,-37.7,11.0,1.9,-37.1,5.73,2.60,-37.6,16.9
2012-12-05 01:58:00,0.0,1.9176,0.0008,-1.00,0.00,-1.0,0.0,138.37,15.11,24.61,36.44,0.04,-272.72,-272.72,-26,562,-936,11.1,1.8,-37.7,11.1,1.9,-37.1,5.73,2.57,-37.6,16.9
2012-12-05 01:59:00,0.0,1.9174,0.0008,-1.00,0.00,-1.0,0.0,138.37,15.13,24.61,36.44,0.04,-272.72,-272.72,-26,562,-936,11.1,1.8,-37.6,11.1,1.9,-37.1,5.73,2.48,-37.6,16.9
2012-12-05 02:00:00,0.0,1.9172,0.0008,-1.00,0.00,-1.0,0.0,138.37,15.14,24.61,36.44,0.04,-272.72,-272.72,-27,562,-936,11.1,1.8,-37.5,11.1,1.9,-37.1,5.73,2.50,-37.6,16.9
2012-12-05 02:01:00,0.0,1.9173,0.0011,-1.00,0.00,-1.0,0.0,138.37,15.17,24.61,36.44,0.04,-272.72,-272.72,-27,562,-936,11.1,1.8,-37.4,11.1,1.9,-36.9,5.73,2.58,-37.6,17.0
2012-12-05 02:02:00,0.0,1.9180,0.0011,-1.00,0.00,-1.0,0.0,138.37,15.19,24.61,36.44,0.04,-272.72,-272.72,-27,562,-936,11.1,1.9,-37.3,11.2,1.9,-36.9,5.73,2.58,-37.5,17.0
2012-12-05 02:03:00,0.0,1.9187,0.0008,-1.00,0.00,-1.0,0.0,138.36,15.21,24.61,36.44,0.04,-272.72,-272.72,-26,562,-936,11.1,1.9,-37.2,11.2,2.0,-36.8,5.73,2.51,-37.5,17.0
2012-12-05 02:04:00,0.0,1.9193,0.0008,-1.00,0.00,-1.0,0.0,138.36,15.23,24.61,36.44,0.04,-272.72,-272.72,-26,562,-936,11.1,1.9,-37.2,11.2,2.0,-36.7,5.73,2.48,-37.5,17.0
2012-12-05 02:05:00,0.0,1.9190,0.0011,-1.00,0.00,-1.0,0.0,138.36,15.25,24.61,36.44,0.04,-272.72,-272.72,-26,562,-936,11.2,1.9,-37.0,11.2,2.0,-36.6,5.73,2.55,-37.5,17.1
2012-12-05 02:06:00,0.0,1.9186,0.0008,-1.00,0.00,-1.0,0.0,138.36,15.27,24.61,36.44,0.04,-272.72,-272.72,-27,562,-936,11.2,1.9,-37.0,11.2,2.0,-36.6,5.73,2.60,-37.5,17.1
2012-12-05 02:07:00,0.0,1.9186,0.0007,-1.00,0.00,-1.0,0.0,138.36,15.28,24.61,36.44,0.04,-272.72,-272.72,-27,562,-937,11.2,1.9,-37.0,11.2,2.0,-36.6,5.73,2.52,-37.5,17.1
2012-12-05 02:08:00,0.0,1.9192,0.0008,-1.00,0.00,-1.0,0.0,138.36,15.30,24.60,36.43,0.04,-272.72,-272.72,-27,562,-937,11.2,1.9,-37.0,11.2,2.0,-36.7,5.73,2.47,-37.5,17.1
2012-12-05 02:09:00,0.0,1.9193,0.0008,-1.00,0.00,-1.0,0.0,138.36,15.32,24.61,36.44,0.04,-272.72,-272.72,-27,562,-937,11.2,1.9,-37.1,11.2,2.0,-36.7,5.73,2.55,-37.5,17.1
2012-12-05 02:10:00,0.0,1.9191,0.0007,-1.00,0.00,-1.0,0.0,138.36,15.34,24.61,36.44,0.04,-272.72,-272.72,-27,563,-937,11.2,1.9,-37.1,11.2,1.9,-36.8,5.73,2.59,-37.4,17.1
2012-12-05 02:11:00,0.0,1.9192,0.0009,-1.00,0.00,-1.0,0.0,138.36,15.36,24.61,36.44,0.04,-272.72,-272.72,-27,563,-937,11.2,1.9,-37.2,11.3,1.9,-36.8,5.73,2.53,-37.4,17.1
2012-12-05 02:12:00,0.0,1.9187,0.0009,-1.00,0.00,-1.0,0.0,138.36,15.38,24.61,36.44,0.04,-272.72,-272.72,-27,562,-937,11.3,1.9,-37.2,11.3,1.9,-36.8,5.73,2.47,-37.4,17.2
2012-12-05 02:13:00,0.0,1.9187,0.0010,-1.00,0.00,-1.0,0.0,138.36,15.40,24.61,36.43,0.04,-272.73,-272.72,-27,562,-937,11.3,1.9,-37.2,11.3,1.9,-36.8,5.73,2.54,-37.4,17.2
2012-12-05 02:14:00,0.0,1.9186,0.0010,-1.00,0.00,-1.0,0.0,138.36,15.42,24.61,36.44,0.04,-272.72,-272.72,-27,563,-937,11.3,1.9,-37.2,11.3,1.9,-36.8,5.73,2.60,-37.4,17.2
2012-12-05 02:15:00,0.0,1.9192,0.0009,-1.00,0.00,-1.0,0.0,138.36,15.44,24.61,36.43,0.04,-272.72,-272.72,-27,563,-937,11.3,1.9,-37.2,11.3,1.9,-36.8,5.73,2.53,-37.3,17.2
2012-12-05 02:16:00,0.0,1.9178,0.0010,-1.00,0.00,-1.0,0.0,138.36,15.46,24.61,36.44,0.04,-272.72,-272.72,-27,563,-937,11.3,1.8,-37.2,11.3,1.9,-36.8,5.73,2.47,-37.3,17.2
2012-12-05 02:17:00,0.0,1.9183,0.0010,-1.00,0.00,-1.0,0.0,138.36,15.48,24.61,36.44,0.04,-272.72,-272.72,-27,563,-937,11.3,1.9,-37.2,11.4,1.9,-36.8,5.73,2.54,-37.3,17.2
2012-12-05 02:18:00,0.0,1.9199,0.0009,-1.00,0.00,-1.0,0.0,138.36,15.50,24.61,36.43,0.04,-272.72,-272.72,-27,563,-937,11.4,1.9,-37.1,11.4,1.9,-36.7,5.73,2.60,-37.3,17.2
2012-12-05 02:19:00,0.0,1.9205,0.0008,-1.00,0.00,-1.0,0.0,138.36,15.52,24.61,36.44,0.04,-272.72,-272.72,-27,563,-937,11.4,1.9,-37.0,11.4,2.0,-36.6,5.73,2.52,-37.3,17.2
2012-12-05 02:20:00,0.0,1.9207,0.0008,-1.00,0.00,-1.0,0.0,138.36,15.54,24.61,36.44,0.04,-272.72,-272.72,-27,562,-937,11.4,1.9,-37.0,11.4,2.0,-36.6,5.73,2.47,-37.3,17.3